GFSSE_sfc_wetblb_006.txt.gz
Wetbulb
74.99 77.23 79.79 79.81 80.00 79.94 79.92 79.68 79.41 79.22 78.62 78.38 78.12 78.00 77.68 77.72 77.72 78.50 78.75 78.45 78.42 77.92 77.52 76.95 76.53 76.06 75.95 76.29 76.34 76.80 77.17 77.39 77.33 76.93 76.84 76.80 76.62 76.98 77.03 76.12 76.62 73.78 75.26
76.62 77.62 79.87 79.70 79.71 79.63 79.72 79.94 79.81 79.59 78.76 78.66 78.27 77.66 77.45 78.14 77.37 77.80 78.27 78.08 77.43 77.19 77.12 76.89 76.56 76.79 76.20 76.59 76.98 76.94 77.48 77.74 78.04 77.17 77.08 76.70 76.18 75.89 75.31 75.28 76.91 74.22 75.21
76.62 77.60 78.45 79.50 79.79 80.08 80.07 80.10 79.84 79.58 78.85 78.57 78.53 78.12 77.56 77.67 77.61 77.08 77.90 77.66 76.98 76.70 76.28 76.25 76.25 76.50 76.42 76.42 76.99 76.44 77.28 77.81 78.05 77.39 77.53 74.56 74.40 75.50 76.11 76.16 75.88 75.59 75.22
77.75 77.50 77.68 79.47 79.84 80.32 80.24 80.39 80.02 79.56 78.24 77.98 77.68 77.98 77.61 77.37 77.17 77.37 77.34 76.92 76.89 76.43 76.34 75.84 76.01 76.17 76.14 76.61 77.25 76.79 76.84 77.26 77.60 76.79 75.72 73.87 73.81 76.28 76.41 76.23 75.96 75.67 75.40
77.97 77.64 78.21 79.87 80.11 79.96 80.05 80.02 79.89 79.56 78.99 77.99 78.01 77.82 77.70 77.35 77.10 77.16 77.17 76.01 76.23 76.23 76.27 76.39 76.31 76.17 76.39 76.63 77.16 76.96 76.69 77.68 77.10 75.84 75.15 74.12 72.97 76.30 76.46 76.30 75.80 75.61 75.88
76.15 78.39 78.95 79.75 80.01 79.67 79.71 79.78 79.65 79.44 79.24 78.24 78.29 78.26 77.86 77.58 77.19 76.72 76.37 76.45 75.64 76.39 76.38 76.19 75.80 76.22 76.47 76.76 77.11 77.33 77.13 77.20 77.20 75.79 75.16 75.56 73.99 77.12 76.42 76.10 75.75 75.40 75.55
77.03 77.90 77.88 79.72 80.18 79.77 79.56 79.66 79.55 79.60 79.33 78.72 78.77 78.06 77.76 77.65 77.48 77.38 76.72 76.50 76.49 76.01 76.15 76.34 75.64 76.70 76.17 76.93 77.03 77.48 77.17 76.96 75.37 74.35 73.62 75.22 75.28 77.33 76.05 75.95 75.66 75.55 74.95
77.98 77.85 77.55 79.74 80.17 79.96 79.04 79.45 79.59 79.77 79.40 79.39 78.97 78.49 77.81 77.78 78.03 77.98 76.85 76.50 76.37 75.95 76.25 76.12 76.39 76.60 76.21 76.67 77.19 77.25 77.21 76.54 75.20 74.08 74.81 75.11 76.36 77.17 76.31 76.22 75.92 75.66 74.38
79.12 78.25 77.78 78.07 78.58 79.10 79.08 79.27 79.70 79.77 79.56 79.32 79.06 78.84 78.33 77.65 77.44 77.34 77.26 76.50 76.56 76.37 76.31 76.25 76.45 76.59 76.48 76.52 76.94 76.96 76.84 76.56 74.61 74.43 74.99 74.65 76.62 77.23 76.50 76.15 76.15 75.75 75.03
78.06 78.94 77.89 78.24 78.18 78.15 78.08 79.36 79.39 79.52 79.41 78.93 78.67 77.79 77.24 77.38 77.43 77.20 77.94 77.71 76.89 76.48 76.23 76.26 76.74 76.81 76.94 76.83 76.49 76.54 76.31 75.83 73.84 74.00 74.51 74.30 76.91 77.52 76.11 76.07 76.01 76.05 75.68
77.21 77.88 77.80 78.06 78.59 78.96 78.35 78.05 79.04 78.79 78.42 78.02 77.35 77.94 77.98 76.25 76.20 76.31 77.08 77.91 76.65 76.54 76.41 76.25 76.49 76.57 77.15 76.20 76.45 76.46 75.77 73.06 72.52 73.71 73.76 76.19 76.66 77.26 76.46 76.76 76.56 76.42 76.03
75.08 77.32 77.01 77.14 77.23 77.77 76.75 76.80 76.99 76.08 76.84 77.22 76.82 77.10 76.40 75.90 76.70 77.01 76.70 77.11 76.36 76.36 76.43 76.71 76.73 76.52 76.34 74.69 74.72 75.21 74.07 73.17 73.27 74.24 73.77 76.28 76.30 77.22 77.17 76.93 76.57 76.22 76.10
75.43 75.08 77.09 77.54 78.01 77.09 76.42 75.86 76.92 76.10 75.70 76.32 76.07 75.24 76.67 76.14 76.57 75.45 76.81 75.50 75.79 76.61 74.90 76.19 75.96 75.15 74.20 74.49 74.31 73.45 73.29 75.21 74.29 74.62 74.51 76.78 76.55 77.20 76.86 77.05 76.51 76.30 76.18
74.78 75.56 76.75 78.05 78.12 76.87 77.50 73.44 74.68 75.45 75.53 74.59 74.70 75.74 73.59 73.00 73.54 75.74 76.19 76.03 76.16 75.74 76.32 75.54 75.23 76.01 75.19 74.17 74.08 74.36 74.99 74.98 74.46 75.39 74.89 76.34 76.83 76.98 77.27 76.89 76.38 76.37 76.32
73.96 75.54 76.43 77.79 78.66 78.04 75.56 72.27 73.69 75.25 75.17 75.48 75.16 73.75 72.68 72.46 73.89 75.54 74.88 75.38 75.61 76.30 76.92 74.93 75.05 75.06 74.94 74.38 74.94 74.10 74.34 74.36 73.87 74.47 74.10 76.01 77.09 77.00 77.06 76.97 76.38 76.00 76.37
73.94 74.91 76.73 77.44 78.94 79.80 78.57 76.40 75.46 75.50 74.29 73.54 74.74 74.82 73.79 73.99 75.94 75.64 74.78 74.46 73.99 75.69 75.21 75.64 75.01 74.73 74.03 75.11 74.39 74.51 74.26 74.68 74.79 74.81 74.18 75.02 76.22 76.89 77.41 77.21 76.63 76.26 76.12
74.42 75.32 75.71 76.70 77.35 78.26 78.75 78.29 78.08 76.48 75.70 74.09 73.66 75.14 74.07 74.43 74.74 74.47 74.13 73.77 75.17 76.11 75.39 75.49 74.86 75.05 74.07 75.01 74.37 74.52 74.46 73.98 74.95 73.65 75.31 75.76 74.41 76.61 77.53 77.49 76.80 76.31 75.88
75.03 75.43 76.27 75.53 76.60 77.67 78.18 78.23 77.56 75.97 76.69 75.59 74.37 75.20 75.19 75.26 74.76 75.49 73.89 73.16 75.39 75.70 75.11 73.93 73.57 73.34 73.18 74.13 74.21 73.77 74.06 74.31 75.06 74.56 74.51 74.03 74.45 73.97 76.34 77.15 76.79 76.02 76.21
77.03 76.78 76.82 77.42 76.47 77.09 78.05 76.96 76.96 76.75 75.84 75.00 74.89 74.18 75.65 74.99 75.02 74.39 73.75 73.33 74.73 74.96 75.24 74.98 72.59 73.10 72.30 72.92 74.13 73.85 73.78 73.80 74.46 74.04 74.80 73.77 73.87 74.14 74.26 75.47 75.51 74.76 76.06
75.95 77.20 77.58 77.49 77.93 77.77 77.27 77.24 76.94 75.06 74.65 74.69 73.57 74.78 73.85 74.33 74.04 73.97 73.71 73.72 73.46 72.33 74.20 74.61 72.73 73.01 71.77 71.63 73.21 72.44 72.70 73.03 74.81 74.17 74.32 73.74 73.99 73.59 74.00 73.54 73.01 72.90 74.59
75.45 76.61 77.04 76.45 77.64 76.92 76.48 74.08 73.60 72.19 72.73 72.95 74.46 74.90 74.88 74.00 73.46 73.37 72.97 72.70 73.70 72.70 73.02 73.55 73.55 72.05 72.15 72.45 71.93 70.07 70.25 72.68 73.34 74.06 73.81 73.39 72.67 73.87 73.67 73.06 72.33 72.45 72.21
74.96 76.30 76.90 76.59 76.61 75.99 76.43 74.94 75.23 75.14 73.09 72.40 73.51 73.52 72.94 72.25 72.70 72.97 72.54 73.15 73.62 72.13 72.62 73.52 72.37 71.53 72.02 71.74 69.40 68.98 65.92 69.43 71.56 72.69 72.87 73.01 71.99 73.61 72.85 73.10 72.07 71.57 72.36
75.04 75.45 76.45 75.54 75.88 76.08 75.01 75.40 74.94 74.51 70.80 69.73 68.83 72.09 72.44 72.08 72.11 72.45 72.62 72.83 72.34 73.40 71.83 73.01 72.65 69.99 69.85 71.47 71.55 67.79 65.12 65.67 68.81 72.37 72.27 72.60 72.24 71.98 72.76 72.26 72.46 72.47 72.10
75.25 74.98 75.47 76.66 76.95 75.97 74.35 73.18 72.61 70.44 66.77 68.61 70.10 71.65 70.59 70.83 72.03 71.86 72.15 72.66 73.57 73.30 71.92 73.23 72.69 69.89 69.75 69.37 69.73 70.91 69.89 70.92 66.50 65.81 70.51 71.97 72.46 71.84 71.54 72.27 72.49 72.83 73.03
75.01 74.68 75.48 76.39 76.14 75.29 74.02 72.77 72.70 68.30 69.30 71.09 69.70 70.71 72.20 71.27 72.22 71.77 71.88 72.29 72.90 73.05 72.09 71.70 71.91 71.77 71.00 69.14 68.17 69.00 68.95 69.92 70.48 66.72 65.32 68.11 70.46 71.86 71.88 71.71 72.41 72.57 72.99
73.90 73.89 74.73 75.51 75.47 74.76 73.21 72.85 71.59 70.40 69.74 70.02 70.28 69.62 71.12 72.04 72.17 71.86 71.46 72.28 72.85 72.92 72.00 70.78 72.27 72.48 70.50 69.61 69.19 68.45 68.04 67.04 67.56 67.26 66.09 67.41 67.49 69.87 71.60 72.10 72.22 72.33 73.27

GFSSE_sfc_wetblb_009.txt.gz
Wetbulb
74.53 77.90 79.93 80.22 80.16 80.07 79.88 79.34 78.93 78.68 78.30 78.47 78.34 78.04 78.43 78.57 78.63 78.81 78.64 78.40 78.34 77.58 77.10 76.67 76.48 76.81 76.61 76.58 76.73 76.89 77.16 77.23 77.07 76.91 76.65 76.50 76.40 76.44 76.43 76.04 75.48 73.76 75.01
76.03 77.70 79.78 80.02 80.08 80.17 79.88 79.69 79.16 78.95 78.37 78.33 78.56 78.35 78.26 78.15 77.73 78.18 78.29 78.29 78.02 78.08 77.36 76.86 76.73 76.61 76.77 76.90 76.70 77.35 77.19 77.77 77.84 77.05 76.65 76.32 76.25 75.83 75.58 76.19 75.45 74.62 75.10
75.98 77.55 78.40 79.41 79.81 79.88 79.85 80.00 79.70 79.08 78.17 78.10 78.32 78.15 77.71 77.89 77.33 77.37 77.72 77.24 77.01 76.74 76.86 76.61 76.77 76.70 76.74 76.98 76.68 76.83 77.35 77.97 78.10 77.39 76.50 74.23 73.86 75.80 76.48 76.14 75.58 75.34 74.92
76.51 76.57 77.50 79.24 79.80 79.75 79.95 80.02 79.88 79.32 78.55 78.23 78.13 77.76 77.84 77.46 77.36 77.46 77.28 77.33 77.03 76.72 76.14 76.14 76.50 76.72 76.44 76.54 76.61 76.62 77.41 77.02 77.24 77.09 73.87 73.58 74.53 76.32 76.14 75.85 75.54 75.41 75.18
75.98 76.48 77.92 80.01 79.99 80.21 80.35 80.03 79.80 79.36 78.80 78.64 78.09 77.59 77.30 77.15 77.17 77.53 77.04 77.23 76.86 76.65 76.33 76.12 76.20 76.36 76.35 76.53 76.62 76.53 77.37 77.42 76.83 76.20 73.80 71.51 72.60 75.82 76.07 75.84 75.49 75.32 74.54
75.98 77.11 79.26 80.15 80.14 80.08 80.20 80.03 79.82 79.41 78.68 78.51 78.67 77.60 77.15 77.20 77.38 77.37 76.58 76.45 76.59 76.77 76.35 76.39 76.45 76.56 76.54 76.61 76.46 76.65 77.27 77.03 75.67 74.36 73.51 74.11 73.68 76.87 76.15 75.86 75.73 75.62 75.15
75.75 76.71 77.97 79.70 79.75 79.64 79.68 79.81 79.61 79.20 78.84 78.54 78.37 77.88 77.63 77.28 77.75 77.57 76.77 76.73 76.90 76.80 76.82 76.33 75.86 76.59 76.41 76.85 76.67 76.95 77.61 76.71 74.50 72.48 73.44 73.60 74.35 76.97 76.23 75.84 75.63 75.43 74.91
75.49 76.40 77.60 79.57 79.85 79.72 79.60 79.67 79.50 79.37 79.24 78.82 78.62 78.41 77.89 77.88 78.22 78.07 77.13 76.82 76.62 76.46 77.08 76.62 76.04 76.83 76.27 76.73 77.07 77.12 77.03 76.48 75.10 73.92 73.40 73.65 75.40 76.50 76.07 75.99 75.70 75.31 74.84
76.00 75.83 76.88 77.81 78.13 79.15 79.84 79.60 79.73 79.66 79.41 79.26 79.39 79.09 78.62 78.01 77.23 77.60 77.64 77.19 76.41 76.42 76.57 76.49 76.51 76.67 76.50 76.24 76.86 76.54 76.41 75.83 73.77 73.45 74.39 74.24 76.35 76.94 76.44 76.31 75.81 74.53 75.29
75.41 75.55 75.62 75.85 76.40 76.73 77.22 79.95 79.93 79.85 79.79 79.15 78.83 78.30 78.09 77.54 76.86 77.26 77.91 77.40 76.54 76.47 76.17 76.28 76.69 76.90 77.34 77.43 76.44 76.58 75.94 75.94 73.00 73.21 73.33 73.53 76.30 76.89 76.70 76.15 75.85 75.65 75.19
75.02 74.55 75.17 75.37 75.46 75.57 75.89 77.36 79.33 79.30 79.03 78.70 78.08 78.06 77.29 74.34 74.77 75.66 76.21 77.43 76.56 76.67 76.29 76.10 76.83 76.95 77.57 76.57 76.27 76.16 75.77 72.31 72.23 72.46 73.76 75.15 76.57 76.84 76.38 76.91 76.35 76.00 74.90
73.03 73.90 74.90 75.37 75.41 75.85 76.64 75.56 75.85 75.59 75.20 74.79 74.21 74.59 74.75 73.56 73.75 75.35 76.02 77.05 76.77 76.44 76.50 77.01 77.38 76.93 76.44 73.87 73.67 75.20 72.75 72.31 71.28 73.60 72.45 75.53 76.36 77.51 76.49 77.19 76.31 76.15 75.56
73.22 73.95 74.05 74.17 74.62 73.64 74.99 74.39 74.46 73.71 72.70 73.63 72.23 73.68 72.59 73.18 72.89 72.20 73.57 74.91 73.85 76.00 73.77 75.79 75.74 74.76 74.17 73.21 72.59 72.15 72.06 71.44 72.49 73.37 74.08 75.77 76.29 76.83 76.65 76.53 76.72 75.71 75.66
72.09 73.31 74.00 74.22 74.11 73.43 73.39 72.95 73.17 73.37 73.26 72.28 72.97 72.47 70.86 69.86 69.85 70.80 72.99 73.15 73.17 73.54 73.09 73.59 73.89 73.77 72.93 73.45 73.04 71.79 71.68 72.23 71.80 73.33 73.20 76.01 76.13 76.72 76.84 76.70 76.38 76.07 75.80
71.30 73.15 73.70 74.35 73.14 73.44 71.87 70.60 66.60 69.74 72.66 72.53 72.06 71.84 70.39 68.54 67.95 69.38 71.37 72.37 72.80 73.55 72.98 73.20 73.11 72.81 72.58 72.75 72.90 72.93 72.18 72.92 72.91 73.00 72.99 75.14 75.93 76.72 77.34 76.70 76.24 75.99 75.71
71.53 72.54 73.95 73.62 73.79 72.86 70.65 70.02 65.87 68.45 71.83 71.59 69.98 71.52 69.95 68.92 69.87 71.27 71.20 70.86 71.95 72.59 72.41 72.77 72.02 71.91 71.60 72.40 72.39 72.82 73.06 73.13 73.65 72.19 72.43 71.37 75.21 76.49 77.25 77.03 76.92 76.19 75.93
70.67 72.84 72.47 72.93 73.49 73.00 72.38 71.03 68.97 71.74 71.52 69.77 66.73 66.48 71.33 70.24 71.45 70.77 70.62 70.35 70.67 72.49 72.96 72.41 72.68 72.42 71.84 72.72 71.53 72.53 73.22 73.30 73.47 73.01 72.58 72.95 73.47 75.36 76.29 76.90 76.97 76.97 76.54
71.22 71.79 72.62 74.51 73.55 73.61 73.18 73.54 72.83 71.64 70.72 70.71 67.68 68.46 71.95 71.34 70.84 71.31 70.51 69.93 70.89 72.31 72.89 72.02 71.54 71.41 71.05 71.65 70.75 71.92 72.54 72.66 72.98 72.52 73.04 72.48 72.43 72.52 75.95 77.00 76.22 76.42 76.12
71.72 72.27 71.85 72.51 72.88 73.63 73.86 72.82 72.18 71.15 71.41 71.20 70.77 71.58 72.06 71.89 71.58 71.35 70.60 70.39 70.53 71.24 71.69 71.21 70.17 70.45 69.93 71.04 70.76 70.64 70.86 70.80 71.44 72.60 72.44 72.98 73.08 73.41 73.60 75.99 76.42 76.22 75.68
73.41 73.30 72.84 72.93 73.29 73.32 73.10 72.17 71.75 70.73 70.77 70.04 69.84 71.00 71.90 72.18 72.47 70.93 70.82 70.65 70.67 69.99 70.36 71.26 69.12 69.75 69.67 69.98 71.65 70.94 70.12 70.49 71.40 70.84 71.31 72.46 72.45 73.03 73.26 72.83 73.66 72.83 74.10
73.13 72.55 72.48 71.89 72.23 72.10 71.17 69.85 69.22 68.26 67.97 68.33 69.40 70.49 70.10 70.65 70.92 70.14 69.57 70.50 69.61 69.16 69.20 70.15 69.95 68.43 68.87 70.54 67.81 68.06 68.84 70.05 70.44 71.42 71.53 70.68 71.97 72.57 72.71 72.67 72.14 71.89 72.30
72.28 72.46 72.14 71.71 71.38 71.16 70.73 69.65 68.93 68.53 68.87 69.11 68.85 70.48 70.65 69.70 69.61 70.45 69.45 69.47 69.20 68.96 69.47 70.01 69.33 67.45 68.71 69.27 65.95 65.61 62.78 65.42 69.03 70.81 71.10 70.72 70.30 71.37 72.16 72.02 71.70 71.09 70.66
72.23 72.43 71.96 71.48 71.01 70.65 70.19 69.53 68.77 68.66 67.79 67.12 68.33 67.88 69.62 69.92 69.09 69.25 69.54 69.50 68.67 68.53 68.06 69.25 69.95 67.87 66.94 69.18 68.46 65.71 62.49 60.98 65.90 68.75 69.28 70.06 70.07 70.15 70.47 71.81 71.96 71.55 71.30
71.95 72.97 72.27 71.77 71.20 70.70 70.21 68.09 66.62 65.74 64.38 65.31 66.51 66.85 68.26 69.11 68.98 69.50 69.10 69.27 69.00 68.98 68.44 69.15 70.57 68.66 67.97 66.58 67.68 69.95 68.18 67.56 62.72 62.52 67.00 68.73 69.49 69.64 69.65 70.38 71.43 71.78 71.58
73.32 73.05 72.79 71.72 70.78 70.58 69.91 68.21 66.76 65.11 65.54 66.48 67.20 66.62 66.78 67.77 68.48 69.63 69.16 69.07 68.69 69.01 69.12 68.71 68.67 68.49 68.13 67.59 65.93 66.76 67.14 67.65 66.89 64.69 61.57 62.90 67.86 69.34 69.65 69.71 71.27 71.52 71.90
72.73 72.68 72.32 70.89 69.73 68.91 68.56 67.40 66.40 65.82 66.78 65.47 65.81 66.12 66.23 67.47 68.15 69.42 69.39 69.11 69.28 68.78 68.74 69.14 69.00 69.72 68.94 67.65 67.27 67.00 66.39 65.27 64.39 64.00 61.90 62.33 63.22 66.53 68.82 69.85 69.60 70.31 70.80

GFSSE_sfc_wetblb_012.txt.gz
Wetbulb
75.49 78.25 79.94 80.03 79.66 79.27 78.85 78.66 78.66 78.54 78.31 78.68 78.79 79.18 78.99 78.57 78.63 78.50 78.67 78.36 77.57 77.31 76.50 76.56 76.72 76.63 76.80 76.61 77.03 76.95 77.01 76.71 76.70 76.48 76.40 76.25 76.07 75.89 76.18 75.27 75.11 72.56 74.63
76.81 78.30 79.89 79.96 79.90 79.55 79.31 79.19 78.76 78.79 78.27 78.50 78.76 78.68 78.73 78.88 78.14 78.32 78.24 77.89 77.33 77.09 76.86 76.50 76.69 76.79 76.84 76.82 76.80 77.05 77.05 76.83 76.97 76.29 76.31 76.49 76.37 75.92 75.48 75.16 74.93 73.86 74.66
76.33 77.76 78.78 79.48 79.98 79.66 79.63 79.35 78.76 78.58 78.07 78.25 78.37 78.30 78.04 78.61 78.28 77.53 77.78 77.45 77.34 77.15 76.97 76.78 76.75 76.80 77.25 76.32 76.79 77.01 77.12 76.79 77.42 76.80 76.51 73.58 73.72 75.56 75.84 75.28 74.54 74.86 74.71
76.45 77.19 77.65 79.28 79.75 80.06 79.86 79.46 78.97 78.44 78.08 77.99 77.79 77.83 78.04 77.93 77.65 77.64 77.35 77.00 76.55 76.58 76.61 76.47 76.69 76.61 76.94 76.73 76.30 77.23 77.12 77.03 76.92 76.39 73.31 73.43 74.02 75.84 75.73 75.19 74.70 74.41 74.60
75.87 76.66 77.43 79.63 79.80 80.08 79.99 79.74 79.18 78.72 78.62 78.15 77.46 77.42 77.20 77.14 77.60 77.49 77.38 77.08 76.88 76.36 76.09 76.12 76.31 76.44 76.59 76.76 76.32 77.40 77.19 77.07 76.88 75.12 72.17 71.88 72.07 75.28 75.64 75.21 74.96 74.85 74.60
75.71 76.62 78.86 79.77 79.73 80.02 80.07 79.74 79.46 78.83 78.68 78.50 77.72 77.09 76.77 76.75 77.43 77.53 77.17 76.36 77.03 76.11 76.27 76.31 75.98 76.22 76.48 76.86 76.46 77.30 77.10 76.95 75.68 73.87 72.77 73.46 72.64 76.16 75.64 75.64 75.28 74.12 74.29
75.35 77.03 77.99 79.44 79.93 80.11 79.94 79.81 79.43 78.83 78.54 78.36 77.38 76.93 76.82 76.99 77.14 76.78 76.03 76.57 76.40 76.53 76.40 76.46 76.23 76.53 76.71 76.68 76.86 76.83 76.93 75.65 73.60 72.67 72.07 72.77 73.78 76.57 75.56 75.53 75.62 75.04 74.56
75.10 76.51 77.24 79.20 79.63 79.83 79.94 79.86 79.50 78.72 78.28 77.94 77.53 77.42 77.25 77.19 76.95 76.53 76.86 76.34 76.70 76.18 76.71 76.22 76.02 76.50 76.71 76.79 76.68 76.77 76.16 76.05 74.82 72.84 73.34 72.96 75.48 76.91 75.95 75.71 75.56 75.07 74.19
75.67 76.10 76.58 76.94 77.78 79.33 79.65 79.70 79.44 78.90 78.44 78.57 78.18 78.14 77.60 77.46 76.97 76.68 77.09 76.79 76.28 76.06 76.71 76.56 76.20 76.73 76.34 76.20 76.87 76.46 76.55 75.51 72.77 72.68 73.98 73.11 75.86 76.73 76.22 75.80 75.43 74.96 73.51
75.18 76.01 76.32 76.03 75.72 76.76 77.23 79.65 79.45 79.24 78.84 77.93 77.93 77.99 77.82 77.49 76.79 77.19 77.55 77.29 76.31 76.27 76.33 76.46 76.60 76.58 77.01 76.06 76.07 76.14 76.00 75.48 72.49 72.57 73.66 73.53 75.81 76.81 76.30 75.92 75.07 74.62 74.63
74.31 74.67 75.32 75.42 75.34 75.22 76.25 77.34 79.37 78.78 78.17 78.05 78.02 78.10 77.53 73.65 73.54 75.49 76.75 76.79 76.22 76.28 76.01 76.20 76.42 77.40 76.96 76.42 75.84 76.15 75.93 72.56 71.78 72.03 72.76 74.93 75.90 77.00 76.61 76.18 75.96 74.83 74.84
72.29 73.28 74.45 74.71 74.68 74.65 76.61 75.19 76.14 76.23 76.14 75.76 75.24 74.88 74.12 73.41 73.48 75.30 75.87 76.86 76.88 76.56 76.48 76.34 76.87 76.71 76.42 74.02 73.37 75.34 72.96 72.45 71.03 71.17 72.44 75.56 76.58 77.02 77.14 76.93 76.48 75.43 74.40
72.70 73.58 73.87 74.46 74.55 74.34 75.11 74.24 74.41 73.61 74.11 73.81 73.43 73.37 73.36 72.99 72.96 73.48 72.92 73.94 73.35 75.17 73.31 75.53 75.31 74.88 73.61 72.96 72.31 71.99 71.89 71.38 71.41 73.15 73.82 75.57 76.27 76.59 76.50 77.18 76.30 75.74 75.16
72.94 73.63 73.72 73.75 73.84 73.54 74.15 74.15 73.74 72.79 72.86 73.07 72.18 72.24 71.20 70.06 70.20 70.64 71.82 72.30 72.33 72.62 72.50 73.00 73.17 73.64 73.19 73.36 72.60 72.02 71.45 70.90 70.96 72.11 73.58 75.84 75.76 76.67 76.49 76.47 76.04 75.66 75.68
71.44 72.91 72.71 73.38 72.59 72.52 72.55 72.23 71.48 71.75 72.54 72.15 72.25 71.78 70.58 69.51 68.49 68.39 70.59 71.43 71.79 72.49 72.15 72.04 71.98 72.49 72.71 72.73 72.87 72.10 71.41 71.35 72.46 71.77 71.83 76.02 75.58 76.38 77.20 76.65 76.00 75.57 75.68
71.14 72.04 72.73 72.79 72.20 71.79 71.14 69.15 67.71 68.34 71.36 71.52 71.91 71.94 70.66 69.21 67.74 68.00 68.88 70.12 70.91 71.86 72.07 72.04 70.94 71.32 71.65 71.93 71.97 72.35 72.35 72.17 72.46 71.00 71.97 73.13 75.17 75.81 77.06 77.32 76.59 75.88 75.66
71.41 72.32 72.78 72.24 72.33 71.23 70.14 69.37 66.94 65.59 69.06 70.49 69.66 69.21 69.41 68.21 67.74 69.08 69.99 69.52 70.05 70.87 71.40 71.18 71.24 71.47 70.97 71.76 71.47 71.88 72.19 72.44 72.73 72.26 71.33 71.20 71.84 75.75 76.26 77.29 77.09 76.58 76.47
71.31 71.64 71.96 73.93 72.25 70.96 70.15 69.78 68.13 68.79 70.26 70.21 67.95 65.33 69.05 68.83 69.47 69.71 69.38 69.34 69.73 70.03 71.02 70.62 70.40 69.95 70.15 70.86 70.39 70.76 71.40 71.80 71.57 72.32 72.04 72.02 71.89 72.98 74.73 76.36 76.49 76.23 76.46
71.35 71.18 71.32 72.30 71.82 72.27 72.07 72.03 71.03 70.50 70.03 69.79 69.24 67.29 68.76 70.51 70.26 70.05 69.61 69.20 69.39 69.92 70.24 69.92 70.17 68.97 68.77 69.85 69.76 70.03 70.43 70.62 71.36 72.73 72.53 72.00 72.21 71.76 71.79 74.56 75.63 75.73 75.95
71.33 71.45 71.06 71.55 71.79 72.53 72.13 70.23 70.14 69.04 69.03 69.55 69.71 69.37 69.74 70.91 70.39 69.18 69.49 69.24 69.20 69.16 69.18 69.13 68.88 69.40 68.34 69.15 70.34 69.77 69.72 69.51 70.50 70.33 71.27 72.65 72.44 72.75 72.26 71.03 70.67 72.95 73.78
71.43 71.06 71.05 71.20 71.55 71.27 69.04 68.52 67.60 66.70 67.38 67.17 68.25 69.46 69.57 70.50 70.31 69.66 69.79 68.37 68.39 68.55 68.19 69.18 68.19 67.15 67.62 68.73 66.78 66.75 67.58 69.70 69.94 69.87 70.34 70.69 71.65 72.00 72.05 71.36 71.18 71.52 71.74
68.63 71.52 71.15 70.98 70.94 70.70 69.76 68.79 68.05 67.24 67.13 68.14 68.10 68.52 70.05 69.62 69.98 69.08 68.61 68.52 68.12 67.46 67.58 68.52 67.40 66.61 66.77 67.73 65.62 64.98 62.49 63.13 67.32 68.78 70.28 70.46 70.16 71.32 71.72 71.75 71.96 71.60 71.41
63.39 69.47 70.85 70.45 70.23 69.88 69.17 68.43 67.76 67.24 66.23 65.39 65.80 66.39 67.53 68.93 68.34 68.98 68.94 67.42 68.21 67.73 67.76 68.32 68.28 66.41 65.64 67.48 67.02 64.69 61.51 59.24 63.25 66.73 68.92 69.61 70.18 69.58 70.55 71.40 71.56 71.38 70.71
63.36 68.07 70.28 70.08 69.72 69.29 68.78 67.15 65.39 64.59 63.70 64.02 64.63 65.57 66.30 67.48 68.15 68.86 68.70 68.27 67.71 67.85 66.88 67.58 68.70 67.31 66.64 64.97 67.21 68.86 66.06 64.96 61.63 60.59 66.03 68.02 69.02 68.93 68.97 70.29 71.14 71.56 70.87
65.52 70.96 70.39 69.24 69.28 68.76 67.66 66.44 65.17 63.61 64.30 65.09 65.54 65.44 65.75 66.11 67.20 68.37 68.12 67.96 67.78 67.69 67.53 67.53 67.80 66.99 67.56 66.12 65.17 65.43 65.89 65.89 65.04 63.30 60.73 63.11 67.22 68.84 69.51 69.43 70.48 71.15 71.26
69.37 71.12 70.45 69.05 67.85 68.03 66.53 65.46 64.78 63.44 62.76 63.51 63.68 64.01 65.09 65.54 66.36 67.40 68.25 67.65 67.92 67.67 67.82 68.07 67.69 66.56 67.56 66.63 65.74 65.24 64.72 63.61 63.25 63.32 62.97 63.17 62.95 64.72 68.32 68.91 69.18 70.46 70.82

GFSSE_sfc_wetblb_015.txt.gz
Wetbulb
75.05 77.29 78.98 78.83 78.99 78.75 78.52 78.46 78.36 78.63 78.50 78.79 78.92 79.02 78.83 78.82 78.40 78.60 78.25 77.82 77.36 77.10 77.03 76.76 76.76 76.65 76.54 76.78 76.70 76.60 76.91 76.60 76.33 76.07 75.56 75.63 75.68 75.53 75.78 74.72 74.01 73.07 73.76
76.28 78.02 79.42 79.28 79.35 78.86 78.81 78.78 78.53 78.61 78.40 78.64 78.53 78.50 78.41 78.74 78.52 77.97 78.18 77.55 76.94 76.54 76.66 76.57 76.51 76.56 76.40 76.64 76.96 76.61 76.57 76.39 76.37 75.76 76.04 76.00 75.67 75.16 75.01 74.52 74.54 74.00 74.55
76.41 77.72 78.55 79.39 79.52 79.07 78.60 78.78 78.73 78.55 78.15 78.39 78.71 78.80 78.54 78.90 78.28 77.66 77.56 77.40 77.10 76.81 76.51 76.62 76.43 76.85 76.64 76.51 76.88 76.79 76.74 76.52 76.89 76.51 76.18 72.96 73.31 75.28 75.31 74.93 74.74 74.53 74.28
76.71 77.24 77.57 79.19 79.56 79.45 79.07 78.89 78.69 78.41 78.03 78.13 77.94 78.05 78.40 78.53 78.17 77.82 77.69 77.35 77.18 77.00 76.79 76.73 76.43 77.00 76.43 76.67 76.82 76.72 76.82 76.47 76.53 76.35 73.08 73.28 73.86 75.38 74.80 74.48 74.87 74.83 74.15
75.96 76.69 77.03 79.72 79.63 79.34 79.35 78.90 78.82 78.54 78.23 77.86 77.43 77.05 77.21 77.44 77.79 77.43 77.02 76.83 76.59 76.67 76.32 76.62 76.57 76.27 76.74 76.11 77.14 76.94 77.00 77.06 76.33 74.36 71.97 72.09 72.99 74.79 74.83 74.91 74.28 74.55 74.43
75.81 76.37 78.31 79.63 79.90 79.69 79.50 79.20 78.94 78.63 78.53 78.13 77.43 76.97 76.71 77.51 77.41 77.52 77.21 76.86 76.64 76.32 76.32 76.18 76.17 76.24 76.14 76.21 77.24 77.30 77.05 76.77 75.74 72.28 71.75 73.75 72.75 75.45 74.75 74.68 74.33 74.35 74.21
75.20 75.81 77.56 79.45 79.82 79.96 79.77 79.41 79.12 78.76 78.24 77.64 77.18 76.94 76.70 76.82 77.39 77.13 76.07 76.60 76.48 76.20 76.53 76.43 76.14 76.35 75.99 76.32 76.79 77.26 76.95 76.21 73.43 72.21 71.79 72.74 73.25 76.13 75.51 74.85 73.99 73.97 74.64
74.95 76.50 76.84 79.06 79.49 79.81 79.91 79.14 78.80 78.04 77.47 77.35 77.14 76.94 76.82 77.05 76.88 76.30 76.35 76.48 76.54 76.40 76.25 76.38 75.90 76.56 76.54 76.27 76.04 77.03 77.05 76.16 74.26 72.05 72.52 72.74 74.94 76.27 75.54 75.48 74.90 74.26 74.59
75.98 76.26 75.92 76.95 78.32 79.42 79.83 79.36 79.06 78.42 78.03 78.24 77.63 77.48 77.10 77.15 76.66 76.17 76.86 76.52 76.54 76.09 76.11 76.14 75.88 76.45 76.13 76.48 76.33 76.59 76.16 75.60 72.52 72.02 73.08 72.83 75.76 76.63 75.86 75.73 75.22 74.28 74.64
75.19 75.37 75.11 75.26 75.45 76.98 78.00 79.61 79.35 78.73 78.35 77.64 77.64 77.46 77.38 77.37 76.62 76.81 77.35 77.08 76.21 76.09 76.41 76.20 76.23 76.47 75.81 75.82 76.55 76.18 75.89 75.69 72.40 72.41 72.95 72.70 75.81 76.47 76.19 75.79 75.35 74.16 73.59
74.24 74.57 74.49 74.35 74.48 75.02 76.03 77.62 79.01 78.60 77.83 77.56 77.47 77.76 77.04 74.25 73.73 75.53 76.38 76.31 76.11 76.33 76.07 76.07 76.24 76.40 76.19 75.40 75.79 75.82 75.81 72.18 71.45 72.11 72.47 74.83 75.96 76.61 76.14 75.86 75.25 75.03 73.92
71.58 72.78 73.45 73.68 74.36 74.54 76.62 75.15 75.88 75.45 75.14 75.00 75.22 74.91 74.37 72.83 72.24 74.87 76.13 76.40 76.45 76.37 76.26 75.99 76.31 76.31 76.10 73.50 73.40 75.45 72.36 72.11 71.11 70.78 72.15 75.51 75.92 76.80 76.65 76.74 75.63 74.75 75.09
71.92 72.69 73.27 73.59 73.63 73.48 74.52 73.89 74.17 73.94 74.39 74.66 74.31 73.84 73.19 72.54 72.97 74.06 72.96 73.58 73.17 75.55 73.41 75.08 74.64 74.31 73.31 72.46 72.21 71.96 71.92 71.61 70.57 71.24 73.13 75.41 75.90 77.26 76.66 76.52 76.17 75.00 74.25
71.36 72.47 72.99 73.49 73.21 72.78 73.48 72.47 72.65 71.86 72.65 72.33 72.15 71.80 71.97 70.93 70.93 71.42 71.61 71.85 71.98 72.18 71.89 72.50 73.25 72.98 72.88 72.67 72.58 71.69 71.36 70.90 70.44 72.17 73.18 75.82 75.95 76.65 76.63 76.22 76.20 75.69 75.12
71.85 72.65 72.72 73.26 73.08 73.18 72.49 72.24 72.04 71.65 72.06 72.08 71.76 71.73 71.58 69.93 69.32 69.89 70.52 70.90 71.11 71.80 71.78 71.22 71.80 71.94 71.86 72.07 71.86 71.58 70.95 70.71 70.95 71.42 71.73 75.73 76.14 76.06 76.73 76.38 76.13 75.83 75.70
72.28 72.47 72.65 72.81 72.91 72.18 71.90 70.70 71.06 71.04 71.26 71.22 71.63 71.49 70.65 69.39 68.78 67.45 68.15 69.86 70.18 71.13 71.47 71.44 71.24 70.90 71.13 71.35 70.74 71.26 71.10 71.22 71.74 71.70 71.64 72.73 75.80 75.94 76.45 76.73 76.40 75.87 75.59
70.88 71.95 72.12 72.25 71.73 71.36 70.76 70.04 69.07 68.69 70.10 70.09 70.45 70.99 70.77 69.09 68.04 67.68 67.27 68.04 69.41 70.20 70.74 70.88 70.99 70.45 70.13 70.51 70.33 71.14 70.99 71.66 72.00 71.45 71.19 72.02 72.75 75.66 75.57 76.14 76.26 76.30 76.22
70.44 71.33 72.11 73.31 71.77 70.77 69.21 69.12 68.28 66.82 66.76 69.19 69.75 68.51 70.01 69.09 67.72 67.03 67.54 68.53 69.10 69.44 70.25 69.78 69.73 69.07 69.41 69.64 69.82 70.31 70.90 71.42 72.00 71.61 71.25 71.17 71.08 71.29 73.96 75.73 75.77 76.31 76.41
69.96 70.92 71.54 72.06 71.34 70.52 69.98 68.85 68.46 67.44 67.72 68.40 68.96 67.18 66.44 68.68 68.78 67.99 68.28 68.80 68.96 68.40 69.01 69.28 68.92 68.80 67.81 68.28 68.96 69.41 70.09 70.09 70.71 71.87 71.52 71.14 70.78 71.27 71.61 74.18 74.57 75.88 76.08
67.98 70.16 71.17 71.61 71.09 70.81 70.65 69.66 69.44 68.69 68.62 68.83 68.89 68.40 67.41 67.41 69.23 68.62 69.01 68.85 68.47 67.92 68.24 67.76 68.01 68.67 68.15 68.87 69.76 69.16 68.94 69.48 69.91 69.88 70.18 71.92 71.79 71.80 71.25 71.29 72.77 73.67 76.11
67.12 67.48 69.84 70.16 70.48 70.56 68.51 67.65 66.77 66.59 66.73 67.11 68.10 68.75 69.02 69.54 69.92 68.67 68.94 68.89 67.74 67.68 67.63 68.13 66.57 66.39 67.29 68.22 66.66 65.03 66.73 68.28 69.13 69.75 70.17 70.66 71.50 71.50 71.42 70.78 70.13 69.93 71.18
65.01 67.67 70.18 69.98 70.30 69.70 68.87 67.88 67.36 66.84 66.46 67.07 67.07 67.45 68.35 69.14 69.43 69.32 69.16 68.28 67.99 67.24 66.86 66.98 66.94 65.69 65.56 67.65 65.07 63.38 61.85 63.28 65.32 68.11 68.39 70.06 69.72 71.19 71.61 71.00 70.16 69.78 70.51
65.53 67.80 66.82 69.53 70.10 69.38 69.02 67.63 66.82 66.57 65.54 64.63 64.82 64.94 66.69 68.64 68.17 68.58 69.03 67.88 67.52 67.72 66.91 66.64 66.82 65.95 64.68 65.91 65.95 63.49 59.87 60.67 61.82 64.41 67.72 69.23 69.46 69.19 70.72 71.30 71.46 71.16 70.85
64.62 69.34 68.40 70.17 69.20 69.00 68.30 66.60 65.07 63.90 63.23 63.57 63.31 64.66 65.54 66.36 67.34 67.59 67.48 67.25 67.05 67.45 67.04 67.18 68.15 66.21 64.68 63.96 65.50 66.64 65.09 64.84 61.08 58.00 63.07 66.92 68.51 68.87 68.78 70.14 70.86 71.14 70.90
64.76 65.15 69.52 68.64 67.70 67.65 67.16 65.82 64.62 62.90 63.52 64.15 64.40 64.18 64.81 65.43 65.99 67.16 67.21 67.07 66.34 66.70 66.80 66.68 66.84 66.28 65.72 65.04 65.27 65.37 64.45 64.61 63.50 61.31 57.05 60.87 65.21 67.90 69.39 69.34 70.16 70.95 71.05
66.55 68.03 69.57 68.08 67.16 67.34 66.22 64.62 63.30 62.04 61.64 62.75 63.02 63.13 64.24 64.80 65.28 66.03 67.18 66.57 66.84 66.57 66.48 66.57 66.69 66.69 66.64 65.92 65.90 65.08 64.61 64.50 63.62 62.68 60.32 60.57 61.40 64.36 67.49 68.87 69.12 69.98 70.63